FW5799 Weather Reports


Display with metric or nautical units.
time (UTC)temp
F
wind
direction
speed
MPH
gust
MPH
rain 1hr
in
rain 24hr
in
rain mn
in
humidity
%
barometer
mb
20260506081607 50 0 0.0 9.0 0.00 0.00 0.00 79 1009.1
20260506073102 50 55 1.0 8.0 0.00 0.00 0.00 85 1008.8
20260506071559 50 16 2.0 8.0 0.00 0.00 0.00 88 1008.6
20260506061601 48 325 0.0 4.0 0.00 0.00 0.00 93 1008.6
20260506050118 47 352 1.0 5.0 0.00 0.00 0.00 95 1008.5
20260506044557 47 32 1.0 5.0 0.00 0.00 0.00 95 1008.4
20260506043106 47 0 1.0 3.0 0.00 0.00 0.00 95 1008.4
20260506041557 47 23 0.0 5.0 0.00 0.00 0.00 95 1008.6
20260506040108 47 11 0.0 4.0 0.00 0.00 0.00 95 1008.6
20260506034605 47 343 0.0 3.0 0.00 0.00 0.00 96 1008.6
20260506033055 47 352 1.0 3.0 0.00 0.00 0.00 96 1008.8
20260506031556 46 337 0.0 3.0 0.00 0.00 0.00 96 1008.8
20260506030058 46 344 1.0 3.0 0.00 0.00 0.00 96 1008.9
20260506024600 46 0 0.0 4.0 0.00 0.00 0.00 96 1009.1
20260506023103 46 346 0.0 5.0 0.00 0.00 0.00 96 1009.2
20260506021605 46 329 1.0 5.0 0.00 0.00 0.00 96 1009.1
20260506020059 47 0 1.0 5.0 0.00 0.00 0.00 96 1009.2
20260506014558 47 311 1.0 5.0 0.00 0.00 0.00 96 1009.3
20260506013105 47 0 2.0 6.0 0.00 0.00 0.00 96 1009.3
20260506011606 47 11 1.0 5.0 0.00 0.00 0.00 95 1009.5
20260506010057 47 340 2.0 6.0 0.00 0.00 0.00 95 1009.5
20260506004556 47 360 2.0 8.0 0.00 0.01 0.00 94 1009.7
20260506003058 47 360 0.0 8.0 0.00 0.01 0.00 93 1009.8
20260506001556 47 360 3.0 8.0 0.00 0.01 0.00 92 1009.8
20260506000058 48 360 1.0 5.0 0.00 0.01 0.00 91 1009.8
20260505234606 48 360 1.0 8.0 0.00 0.03 0.00 91 1010.0
20260505233056 48 360 1.0 6.0 0.00 0.03 0.00 90 1010.0
20260505231608 49 360 1.0 8.0 0.00 0.03 0.00 89 1010.0
20260505230057 49 360 2.0 8.0 0.00 0.03 0.00 87 1010.1
20260505224557 49 360 0.0 8.0 0.00 0.03 0.00 87 1010.2
20260505223106 49 360 1.0 6.0 0.00 0.03 0.00 87 1010.3
20260505221600 49 360 1.0 9.0 0.00 0.03 0.00 87 1010.3
20260505220059 49 360 1.0 5.0 0.00 0.03 0.00 87 1010.4
20260505214615 49 360 2.0 10.0 0.00 0.03 0.03 86 1010.5
20260505213102 50 360 2.0 8.0 0.00 0.03 0.03 87 1010.6
20260505211606 50 360 0.0 6.0 0.00 0.03 0.03 87 1010.7
20260505210057 50 360 2.0 6.0 0.00 0.03 0.03 86 1010.7
20260505204600 50 360 1.0 5.0 0.00 0.03 0.03 87 1010.8
20260505203055 50 360 1.0 9.0 0.00 0.03 0.03 87 1010.8
20260505201600 50 360 1.0 5.0 0.00 0.03 0.03 87 1010.8
20260505200106 50 360 1.0 5.0 0.00 0.03 0.03 88 1010.7
20260505194557 50 360 2.0 5.0 0.00 0.03 0.03 88 1010.7
20260505193057 51 0 1.0 6.0 0.00 0.03 0.03 88 1010.6
20260505191556 51 360 1.0 6.0 0.00 0.03 0.03 87 1010.6
20260505190056 51 360 0.0 4.0 0.00 0.03 0.03 87 1010.6
20260505184558 51 360 1.0 8.0 0.00 0.03 0.03 86 1010.6
20260505183106 52 360 1.0 5.0 0.00 0.03 0.03 86 1010.3
20260505181554 52 0 1.0 10.0 0.00 0.03 0.03 85 1010.3
20260505180059 52 360 1.0 6.0 0.00 0.03 0.03 85 1010.4
20260505174601 52 360 1.0 6.0 0.00 0.03 0.03 85 1010.4
20260505173056 53 0 1.0 5.0 0.00 0.03 0.03 84 1010.3
20260505171556 53 360 1.0 4.0 0.00 0.03 0.03 84 1010.3
20260505164604 54 360 1.0 8.0 0.00 0.03 0.03 82 1010.5
20260505163059 54 360 1.0 9.0 0.00 0.03 0.03 81 1010.6
20260505161605 54 360 3.0 9.0 0.00 0.03 0.03 81 1010.6
20260505153109 55 0 1.0 6.0 0.00 0.03 0.03 81 1010.7
20260505151610 54 360 1.0 5.0 0.00 0.03 0.03 82 1010.8
20260505140113 54 360 1.0 8.0 0.00 0.03 0.03 85 1011.1
20260505124607 53 0 1.0 6.0 0.00 0.03 0.03 87 1011.4
20260505123059 53 0 1.0 5.0 0.00 0.03 0.03 87 1011.6
20260505121558 52 360 1.0 8.0 0.00 0.03 0.03 87 1011.8
20260505120057 52 0 1.0 5.0 0.00 0.03 0.03 87 1011.9
20260505114602 52 360 1.0 4.0 0.00 0.03 0.03 88 1011.8
20260505113120 52 360 1.0 6.0 0.00 0.03 0.03 87 1011.8
20260505111608 52 0 1.0 8.0 0.00 0.03 0.03 87 1011.8
20260505101558 52 360 1.0 10.0 0.00 0.03 0.03 87 1012.1
20260505100059 52 360 1.0 3.0 0.00 0.03 0.03 90 1012.2
20260505094557 51 0 1.0 5.0 0.00 0.03 0.03 91 1012.3
20260505093102 50 360 2.0 9.0 0.00 0.03 0.03 91 1012.3
20260505091606 50 360 1.0 5.0 0.00 0.03 0.03 91 1012.3
20260505090101 50 360 2.0 8.0 0.00 0.03 0.03 93 1012.3
20260505084558 49 360 2.0 6.0 0.00 0.03 0.03 93 1012.3
20260505083104 49 0 1.0 8.0 0.00 0.03 0.03 94 1012.3